Change the Weather History Date:

Sunday, March 10, 2013

  Actual Average Record
Temperature  
Mean Temperature 28 °F -  
Max Temperature 32 °F 29 °F 59 °F (2012)
Min Temperature 23 °F 7 °F -11 °F (2003)
Degree Days  
Heating Degree Days 38    
Moisture  
Dew Point 23 °F    
Average Humidity 83    
Maximum Humidity 93    
Minimum Humidity 74    
Precipitation  
Precipitation 0.00 in - - ()
Sea Level Pressure  
Sea Level Pressure 29.95 in    
Wind  
Wind Speed 7 mph (North)    
Max Wind Speed 15 mph    
Max Gust Speed 22 mph    
Visibility 9 miles    
Events      
Averages and records for this station are not official NWS values.
T = Trace of Precipitation, MM = Missing Value Source: NWS Daily Summary

Daily Weather History Graph

Daily Weather History Graph

Search for Another Location

Airport or City:

Trip Planner

Search our weather history database for the weather conditions in past years. The results will help you decide how hot, cold, wet, or windy it might be!

Date:

Astronomy

Mar. 10, 2013 Rise Set
Actual Time 7:32 AM CDT 7:08 PM CDT
Civil Twilight 7:01 AM CDT 7:39 PM CDT
Nautical Twilight 6:26 AM CDT 8:14 PM CDT
Astronomical Twilight 5:50 AM CDT 8:51 PM CDT
Moon 6:35 AM CDT (3/10) 6:16 PM CDT (3/10)
Length of Visible Light 12h 37m
Length of Day
11h 36m
Waning Crescent, 2% of the Moon is Illuminated
Mar 10
Waning Crescent
Mar 11
New
Mar 19
First Quarter
Mar 27
Full
Apr 2
Last Quarter

Hourly Weather History & Observations

Time (CDT) Temp. Windchill Dew Point Humidity Pressure Visibility Wind Dir Wind Speed Gust Speed Precip Events Conditions
12:05 AM 32.0 °F 27.5 °F 30.2 °F 93% 29.78 in 10.0 mi NW 4.6 mph - N/A   Overcast
12:25 AM 32.0 °F 27.5 °F 30.2 °F 93% 29.79 in 10.0 mi NNW 4.6 mph - N/A   Overcast
12:45 AM 32.0 °F 27.5 °F 30.2 °F 93% 29.79 in 10.0 mi North 4.6 mph - N/A   Overcast
1:05 AM 32.0 °F 27.5 °F 30.2 °F 93% 29.81 in 10.0 mi North 4.6 mph - N/A   Overcast
1:25 AM 32.0 °F 28.7 °F 30.2 °F 93% 29.82 in 10.0 mi NNW 3.5 mph - N/A   Overcast
1:45 AM 32.0 °F - 30.2 °F 93% 29.82 in 10.0 mi Calm Calm - N/A   Overcast
3:05 AM 32.0 °F 26.4 °F 30.2 °F 93% 29.82 in 10.0 mi NNW 5.8 mph - N/A   Overcast
3:25 AM 32.0 °F 27.5 °F 30.2 °F 93% 29.82 in 10.0 mi North 4.6 mph - N/A   Overcast
3:45 AM 32.0 °F 26.4 °F 30.2 °F 93% 29.82 in 10.0 mi North 5.8 mph - N/A   Overcast
4:05 AM 32.0 °F 28.7 °F 30.2 °F 93% 29.81 in 10.0 mi North 3.5 mph - N/A   Overcast
4:25 AM 32.0 °F 27.5 °F 30.2 °F 93% 29.82 in 7.0 mi North 4.6 mph - N/A   Overcast
4:45 AM 32.0 °F 27.5 °F 30.2 °F 93% 29.83 in 7.0 mi North 4.6 mph - N/A   Overcast
5:05 AM 32.0 °F 26.4 °F 30.2 °F 93% 29.85 in 7.0 mi NNW 5.8 mph - N/A   Overcast
5:25 AM 32.0 °F 26.4 °F 30.2 °F 93% 29.85 in 7.0 mi North 5.8 mph - N/A   Overcast
6:05 AM 32.0 °F 26.4 °F 28.4 °F 87% 29.87 in 10.0 mi North 5.8 mph - N/A   Overcast
6:25 AM 32.0 °F 25.6 °F 28.4 °F 87% 29.87 in 10.0 mi North 6.9 mph - N/A   Overcast
7:25 AM 30.2 °F 23.4 °F 28.4 °F 93% 29.91 in 5.0 mi NNW 6.9 mph - N/A   Overcast
7:45 AM 28.4 °F 19.7 °F 26.6 °F 93% 29.92 in 7.0 mi NNW 9.2 mph 17.3 mph N/A   Overcast
8:05 AM 28.4 °F 20.4 °F 26.6 °F 93% 29.93 in 7.0 mi NNW 8.1 mph - N/A   Overcast
8:25 AM 26.6 °F 20.0 °F 24.8 °F 93% 29.93 in 5.0 mi NNW 5.8 mph - N/A   Overcast
8:45 AM 26.6 °F 21.2 °F 24.8 °F 93% 29.93 in 5.0 mi NNW 4.6 mph - N/A   Overcast
9:05 AM 26.6 °F 19.1 °F 24.8 °F 93% 29.94 in 7.0 mi NNW 6.9 mph - N/A   Overcast
9:25 AM 26.6 °F 18.2 °F 24.8 °F 93% 29.97 in 7.0 mi NNW 8.1 mph - N/A   Overcast
9:45 AM 28.4 °F 23.3 °F 24.8 °F 86% 29.97 in 10.0 mi NNW 4.6 mph - N/A   Overcast
10:05 AM 28.4 °F 20.4 °F 24.8 °F 86% 29.95 in 7.0 mi NNW 8.1 mph 16.1 mph N/A   Overcast
10:25 AM 28.4 °F 21.2 °F 24.8 °F 86% 29.98 in 7.0 mi North 6.9 mph 16.1 mph N/A   Overcast
10:45 AM 28.4 °F 21.2 °F 24.8 °F 86% 30.00 in 10.0 mi NNW 6.9 mph - N/A   Overcast
11:05 AM 28.4 °F 19.7 °F 24.8 °F 86% 29.99 in 10.0 mi NNW 9.2 mph 16.1 mph N/A   Overcast
11:25 AM 28.4 °F 20.4 °F 24.8 °F 86% 30.00 in 10.0 mi North 8.1 mph - N/A   Overcast
11:45 AM 28.4 °F 22.2 °F 23.0 °F 80% 30.01 in 10.0 mi North 5.8 mph - N/A   Overcast
12:05 PM 28.4 °F 22.2 °F 23.0 °F 80% 30.01 in 7.0 mi North 5.8 mph - N/A   Overcast
12:25 PM 28.4 °F 20.4 °F 23.0 °F 80% 30.00 in 7.0 mi North 8.1 mph - N/A   Overcast
12:45 PM 28.4 °F 19.7 °F 23.0 °F 80% 29.99 in 10.0 mi North 9.2 mph 18.4 mph N/A   Overcast
1:05 PM 30.2 °F 24.3 °F 23.0 °F 75% 29.98 in 10.0 mi North 5.8 mph 18.4 mph N/A   Overcast
1:25 PM 30.2 °F 20.8 °F 23.0 °F 75% 29.99 in 10.0 mi North 11.5 mph 18.4 mph N/A   Overcast
1:45 PM 28.4 °F 19.7 °F 23.0 °F 80% 30.02 in 10.0 mi NNE 9.2 mph - N/A   Overcast
2:05 PM 26.6 °F 18.2 °F 21.2 °F 80% 30.02 in 10.0 mi North 8.1 mph - N/A   Overcast
2:25 PM 26.6 °F 18.2 °F 21.2 °F 80% 30.00 in 10.0 mi North 8.1 mph - N/A   Overcast
2:45 PM 26.6 °F 17.5 °F 21.2 °F 80% 29.99 in 10.0 mi NNE 9.2 mph - N/A   Overcast
3:05 PM 26.6 °F 18.2 °F 21.2 °F 80% 29.98 in 10.0 mi North 8.1 mph 17.3 mph N/A   Overcast
3:25 PM 26.6 °F 18.2 °F 21.2 °F 80% 29.98 in 10.0 mi North 8.1 mph 16.1 mph N/A   Overcast
3:45 PM 26.6 °F 17.5 °F 21.2 °F 80% 29.98 in 10.0 mi NNE 9.2 mph 17.3 mph N/A   Overcast
4:05 PM 26.6 °F 17.5 °F 21.2 °F 80% 30.01 in 10.0 mi NNE 9.2 mph 16.1 mph N/A   Overcast
4:25 PM 26.6 °F 16.8 °F 19.4 °F 74% 30.02 in 10.0 mi NNE 10.4 mph - N/A   Overcast
4:45 PM 26.6 °F 17.5 °F 21.2 °F 80% 30.03 in 10.0 mi NNE 9.2 mph - N/A   Overcast
5:05 PM 26.6 °F 16.8 °F 19.4 °F 74% 30.02 in 10.0 mi NNE 10.4 mph - N/A   Overcast
5:25 PM 26.6 °F 18.2 °F 19.4 °F 74% 30.02 in 10.0 mi North 8.1 mph - N/A   Overcast
5:45 PM 26.6 °F 17.5 °F 19.4 °F 74% 30.00 in 10.0 mi NNE 9.2 mph 18.4 mph N/A   Overcast
6:05 PM 24.8 °F 14.6 °F 19.4 °F 80% 30.00 in 10.0 mi NNE 10.4 mph - N/A   Overcast
6:25 PM 24.8 °F 14.0 °F 17.6 °F 74% 30.01 in 10.0 mi NNE 11.5 mph - N/A   Overcast
6:45 PM 24.8 °F 15.3 °F 17.6 °F 74% 30.01 in 10.0 mi NNE 9.2 mph 18.4 mph N/A   Overcast
7:05 PM 24.8 °F 15.3 °F 17.6 °F 74% 30.01 in 10.0 mi NNE 9.2 mph - N/A   Overcast
7:25 PM 24.8 °F 16.1 °F 17.6 °F 74% 30.00 in 10.0 mi NNE 8.1 mph - N/A   Overcast
7:45 PM 24.8 °F 13.4 °F 17.6 °F 74% 30.00 in 10.0 mi NNE 12.7 mph 18.4 mph N/A   Overcast
8:05 PM 24.8 °F 12.4 °F 17.6 °F 74% 29.99 in 10.0 mi NNE 15.0 mph 21.9 mph N/A   Overcast
8:25 PM 24.8 °F 15.3 °F 17.6 °F 74% 30.00 in 10.0 mi NE 9.2 mph - N/A   Overcast
8:45 PM 24.8 °F 14.6 °F 17.6 °F 74% 30.01 in 10.0 mi NE 10.4 mph - N/A   Overcast
9:05 PM 23.0 °F 10.1 °F 15.8 °F 74% 30.00 in 10.0 mi NE 15.0 mph 21.9 mph N/A   Overcast
9:25 PM 23.0 °F 13.9 °F 15.8 °F 74% 30.00 in 10.0 mi NE 8.1 mph - N/A   Overcast
9:45 PM 23.0 °F 12.4 °F 15.8 °F 74% 30.01 in 10.0 mi NE 10.4 mph - N/A   Overcast
10:05 PM 23.0 °F 12.4 °F 15.8 °F 74% 30.01 in 10.0 mi NE 10.4 mph 16.1 mph N/A   Overcast
10:25 PM 23.0 °F 11.1 °F 15.8 °F 74% 30.01 in 10.0 mi NE 12.7 mph 19.6 mph N/A   Overcast
10:45 PM 23.0 °F 10.6 °F 15.8 °F 74% 30.01 in 10.0 mi NE 13.8 mph 17.3 mph N/A   Overcast
11:05 PM 23.0 °F 12.4 °F 15.8 °F 74% 30.00 in 10.0 mi NE 10.4 mph - N/A   Overcast
11:25 PM 23.0 °F 13.1 °F 15.8 °F 74% 29.99 in 10.0 mi ENE 9.2 mph - N/A   Overcast
12:05 AM 23.0 °F 13.1 °F 15.8 °F 74% 29.98 in 10.0 mi NE 9.2 mph - N/A   Overcast
12:25 AM 23.0 °F 14.7 °F 15.8 °F 74% 29.97 in 10.0 mi NE 6.9 mph - N/A   Overcast
12:45 AM 23.0 °F 17.0 °F 15.8 °F 74% 29.96 in 10.0 mi NE 4.6 mph - N/A   Overcast